Wind_Speed
28 28 28 28 28 28 27 27 27 27 27 26 26 25 25 25 25 25 26 25 25 24 23 24 25 25 25 24 25 27 29 31 32 32 32 32 32 31 32 34 36 38 40 42 43 44 47 49 51 53 50 40 33 30 34 45 47 38 36 40 43 46 47 47 44 41 40 39 38 41 43 40 36 33 33 35 37 39 40 40 41 45 48 50 52
29 29 30 31 30 30 29 29 29 29 29 29 29 28 27 27 27 28 29 28 27 26 25 25 26 27 27 26 26 28 30 33 33 33 33 34 34 34 34 35 37 39 42 44 44 44 47 50 52 53 48 39 33 31 37 46 46 38 35 39 43 46 49 51 49 45 42 40 39 42 45 42 38 35 34 35 39 41 41 42 45 47 49 52 55
30 30 31 32 32 32 32 31 31 31 31 31 31 30 29 29 29 30 31 30 28 28 27 27 28 29 29 29 28 29 32 34 34 34 34 35 36 36 37 37 38 40 43 45 46 45 47 49 51 51 47 40 35 37 45 50 45 36 36 40 44 46 48 51 53 49 45 43 42 43 45 44 39 37 36 37 40 43 43 44 47 51 53 56 60
32 32 33 34 34 34 34 33 33 33 33 33 33 32 32 32 31 32 32 31 30 30 29 29 30 31 31 31 31 32 34 36 36 36 36 37 38 38 39 39 40 41 43 46 47 46 47 49 49 49 47 42 40 44 51 54 45 36 35 41 45 46 47 50 53 53 49 46 45 45 46 45 41 39 39 41 43 46 47 48 51 55 57 60 63
34 35 36 36 36 36 36 36 36 35 35 35 35 34 34 34 33 33 33 33 33 32 31 31 32 33 33 33 33 34 36 37 38 38 39 40 40 41 41 41 41 42 44 47 48 47 48 49 48 48 47 45 46 49 52 53 47 39 37 40 44 47 48 49 52 54 52 49 48 49 49 47 43 41 41 44 47 49 50 51 55 59 61 63 66
36 37 38 38 39 39 38 37 37 37 37 36 36 36 35 35 34 34 34 34 35 34 34 34 34 35 36 36 36 36 37 39 40 40 41 42 42 43 43 43 43 43 45 48 49 49 49 50 49 50 50 49 50 51 51 51 49 45 43 44 45 48 49 49 51 54 53 51 50 51 52 51 47 44 43 45 49 52 53 54 58 62 64 67 70
38 39 40 40 41 41 40 39 38 38 37 37 37 37 37 36 36 35 36 36 37 36 36 36 36 37 38 39 38 38 39 40 41 42 43 44 44 44 45 45 45 45 46 49 51 51 51 51 51 51 52 52 53 52 50 50 49 48 47 47 47 48 49 49 50 52 54 53 53 54 55 53 51 48 47 48 50 54 55 57 61 65 67 70 73
39 40 40 41 43 43 41 40 39 39 38 38 38 39 38 38 38 38 38 39 39 38 38 38 38 39 41 41 40 40 41 42 43 44 45 46 46 46 47 47 47 47 48 50 53 53 52 52 53 53 54 55 55 54 52 50 49 48 47 46 46 46 47 47 48 50 53 53 54 55 56 55 54 52 51 51 53 55 57 59 63 68 70 73 76
41 41 42 43 44 44 42 41 41 40 40 40 40 40 41 41 41 41 41 41 41 41 41 41 41 41 42 43 43 43 44 45 45 45 47 48 48 48 49 49 49 50 51 53 54 55 54 53 54 55 56 57 56 55 54 52 49 47 46 45 43 43 44 45 46 49 52 54 55 56 57 57 56 55 54 55 56 58 58 60 65 69 73 76 77
44 44 44 45 46 45 44 43 43 43 43 43 43 44 44 44 44 45 45 44 44 43 43 43 43 43 44 45 45 45 46 47 47 47 48 50 50 50 51 51 52 53 53 55 56 56 56 55 55 57 59 59 58 57 56 54 50 47 45 44 43 42 41 43 46 49 51 54 56 57 58 58 57 57 57 58 59 60 61 63 67 71 75 78 79
47 46 47 47 48 47 47 46 46 46 47 47 47 47 47 47 48 48 48 48 46 45 45 45 45 45 46 47 48 49 49 50 50 50 51 52 52 52 53 53 55 56 56 57 59 59 58 57 57 58 60 61 60 59 57 53 50 46 44 43 43 42 40 42 46 49 51 54 57 58 59 59 59 59 59 60 61 62 63 66 70 73 77 80 81
50 49 50 50 50 50 51 50 50 49 50 50 50 50 50 50 51 52 51 50 49 48 47 47 47 47 48 50 51 52 52 53 53 53 53 54 54 54 55 56 57 59 59 60 61 61 59 59 58 59 62 62 61 61 58 52 48 46 44 43 42 40 38 41 46 49 51 54 57 58 60 60 60 60 61 63 64 64 65 68 71 75 79 81 82
52 52 52 52 52 53 54 54 53 53 53 53 53 52 52 53 54 54 54 53 51 50 50 49 49 50 51 52 53 54 55 55 56 56 56 56 56 56 57 58 60 62 62 63 64 63 60 60 60 60 63 63 63 62 58 51 46 45 44 42 41 38 37 41 47 50 52 55 56 58 60 61 62 62 63 65 66 66 67 70 73 77 80 83 85
55 55 55 54 55 56 56 56 57 56 56 55 55 54 55 56 56 56 56 55 53 52 52 51 51 52 53 54 55 56 58 58 58 58 59 59 59 58 59 60 62 64 65 65 66 65 62 61 61 61 63 64 63 62 57 50 46 44 43 42 41 38 37 41 48 51 53 55 56 58 60 62 63 63 64 66 68 68 70 72 76 79 83 85 87
58 58 58 58 58 59 59 59 60 59 59 58 57 56 57 58 58 58 58 56 55 55 54 53 54 54 55 56 57 59 60 61 61 61 61 62 61 60 61 63 65 67 67 66 67 66 64 62 62 62 63 63 61 60 57 50 45 43 42 41 41 39 38 42 49 53 55 56 56 58 61 63 64 64 66 68 70 70 72 74 78 82 85 88 89
62 63 63 63 63 63 62 63 63 63 62 61 60 59 60 60 61 61 59 58 57 57 57 57 57 57 57 58 59 62 63 64 64 64 64 65 64 62 63 64 66 68 69 68 68 67 64 62 62 63 63 61 58 57 55 50 45 42 41 40 40 39 39 44 51 55 55 55 56 58 61 64 65 66 67 70 72 73 74 76 80 84 87 89 91
66 67 67 67 67 67 66 66 67 66 66 66 65 64 64 63 63 63 62 61 60 60 60 61 60 60 61 61 63 65 66 67 67 67 68 68 67 66 65 66 68 69 70 71 70 67 64 62 62 63 61 57 55 54 53 50 46 43 41 39 39 38 39 45 53 56 56 56 57 59 62 64 66 68 69 71 74 75 76 78 81 85 89 91 93
65 68 68 69 69 68 69 70 70 70 69 70 70 69 68 67 66 65 65 65 64 64 64 64 64 64 64 65 67 69 69 70 70 71 71 71 70 69 68 68 70 70 71 72 71 67 64 63 63 61 58 54 52 52 52 50 48 44 41 39 39 39 40 47 54 56 56 56 57 60 62 65 67 69 70 72 75 76 78 80 83 87 90 92 94
60 62 63 64 64 65 67 70 71 72 72 73 73 73 72 70 69 69 68 69 69 68 67 66 67 69 69 69 71 72 71 72 73 74 74 73 73 71 71 70 71 72 72 73 71 68 65 63 62 59 55 51 49 50 50 50 49 45 41 40 40 39 42 50 55 56 56 57 59 61 63 65 68 70 71 73 76 78 79 81 85 88 91 93 95
54 54 55 56 57 59 62 64 66 68 70 71 72 73 73 72 72 72 71 72 72 72 71 70 71 72 73 73 74 74 73 74 75 76 76 75 73 73 72 72 72 72 72 72 70 68 65 62 58 55 51 49 49 48 49 51 50 45 41 40 40 41 46 52 55 56 57 58 60 62 64 66 69 72 72 74 77 79 81 83 86 89 92 94 97
49 50 51 52 53 55 57 59 61 63 64 67 69 70 71 71 72 72 73 73 74 73 72 72 73 74 75 76 76 76 76 76 76 77 78 75 72 72 72 73 72 71 71 70 68 65 62 58 55 51 49 49 49 47 49 51 49 44 41 40 40 43 49 53 54 56 58 59 61 63 65 67 70 73 74 75 78 81 82 84 87 90 93 96 98
50 50 51 52 52 53 54 56 58 59 61 63 64 66 67 67 68 69 71 72 73 73 71 71 73 75 76 76 76 77 77 76 75 76 77 74 70 68 68 68 68 66 66 65 62 60 57 54 50 48 47 48 48 47 48 50 47 43 41 40 41 46 51 53 55 57 59 60 62 64 67 69 71 74 76 76 78 82 84 85 88 91 94 98 99
53 52 53 53 53 53 54 55 56 57 58 60 61 62 64 64 64 65 67 68 69 69 68 68 69 72 73 74 74 74 74 73 71 71 73 71 65 59 57 57 59 59 59 57 55 53 51 48 45 44 45 47 46 46 48 48 45 43 41 41 44 49 53 54 56 58 60 60 62 65 68 70 72 75 77 77 79 83 85 86 89 92 95 99 100
54 54 55 55 56 56 56 56 56 57 58 59 59 60 62 62 62 62 64 65 65 65 64 63 63 65 68 69 69 70 69 68 66 65 66 64 58 53 50 49 51 53 52 50 49 46 43 42 42 42 43 44 45 45 45 45 44 42 40 42 47 51 53 55 57 59 60 61 63 66 69 71 73 77 78 78 80 84 86 87 90 93 96 99 101
54 55 56 56 57 58 58 58 58 58 59 59 59 59 60 61 61 60 60 61 62 61 61 61 59 59 60 62 64 64 63 61 60 60 58 55 53 52 49 46 47 50 48 44 41 38 36 38 41 41 41 42 43 43 44 43 43 42 41 44 49 52 53 55 58 59 60 62 64 66 69 72 74 77 79 79 80 84 87 88 91 94 97 100 101
56 56 56 57 57 58 59 60 61 61 61 60 59 59 60 60 60 60 59 59 60 60 59 58 56 55 56 57 59 59 56 54 54 54 52 50 49 49 47 43 42 43 41 35 32 32 34 38 39 39 39 40 41 42 43 44 42 41 42 46 50 51 52 55 57 58 60 62 65 67 70 72 75 78 80 80 81 85 87 89 91 94 97 100 102
57 58 58 58 58 58 59 61 62 63 62 61 60 60 60 59 59 58 58 58 59 59 59 57 54 52 53 54 55 53 50 47 47 47 46 44 42 42 42 39 37 35 31 26 27 31 34 36 36 36 37 39 40 42 44 43 41 41 43 47 48 48 51 54 57 59 61 62 65 68 71 74 76 79 80 80 81 85 88 90 92 95 98 101 102
58 58 58 58 59 60 61 62 63 64 64 63 61 60 59 59 59 58 58 58 58 58 57 55 53 52 52 52 52 47 42 41 41 43 43 42 41 40 38 38 40 38 31 25 27 31 33 33 33 34 36 39 42 45 45 43 40 41 44 46 46 48 52 54 57 59 61 63 66 69 72 74 77 79 80 80 81 85 89 90 93 96 99 101 102
59 58 58 59 60 61 62 63 65 66 66 65 62 60 58 58 58 57 58 59 58 58 57 54 51 51 49 48 47 43 41 42 44 44 41 39 41 42 40 38 41 43 41 37 34 32 33 35 36 37 40 43 46 48 47 43 41 43 46 46 47 50 53 54 56 59 61 64 67 69 72 75 77 79 80 80 82 86 89 91 94 97 99 101 102
61 60 60 60 61 61 63 64 65 66 67 66 64 61 59 58 57 56 57 58 58 59 57 53 50 49 46 43 42 43 45 47 47 44 41 39 41 46 46 42 41 45 49 48 42 37 37 40 42 44 46 48 50 52 49 45 44 45 48 47 48 50 52 54 57 60 62 65 68 70 73 75 77 79 80 80 83 87 90 92 95 97 99 101 102
64 63 62 62 63 63 63 64 65 67 68 67 65 62 60 58 56 55 55 56 57 58 57 52 49 48 45 43 45 47 48 48 47 46 45 44 44 47 50 49 47 51 56 54 48 46 46 44 45 49 52 51 52 55 53 48 46 47 48 48 49 51 53 55 57 60 63 67 69 71 73 75 77 79 80 81 84 87 91 93 95 97 99 101 102
66 66 65 65 65 65 65 66 67 68 69 69 66 63 59 57 56 55 55 55 55 56 55 52 50 50 49 48 52 54 52 49 48 48 50 51 49 49 53 57 58 58 57 52 50 53 54 51 49 52 55 55 55 57 55 51 49 49 50 50 51 52 53 55 58 61 66 69 70 71 73 75 77 79 80 82 85 89 91 94 95 97 99 101 102
69 68 68 68 68 67 67 68 68 69 70 70 67 63 59 56 55 55 55 55 54 54 54 51 50 52 53 54 57 56 50 47 48 50 53 56 54 52 56 63 65 60 53 47 47 52 57 57 54 52 53 58 60 59 58 56 54 53 53 53 52 53 54 57 61 65 68 70 71 72 73 75 77 78 80 83 87 90 92 94 95 96 99 101 102
71 71 71 71 70 69 69 69 69 70 71 71 68 64 59 54 51 50 51 52 54 55 54 50 49 53 55 56 57 52 46 47 54 57 56 54 50 45 49 57 62 59 50 45 47 51 52 53 53 51 52 60 65 63 60 60 58 55 55 54 53 54 56 59 64 68 70 71 71 72 74 75 77 79 81 84 88 90 92 93 95 96 99 101 102
74 74 73 73 73 72 72 71 71 72 72 71 69 65 60 55 51 47 46 48 51 53 55 53 52 54 56 55 53 50 47 51 55 53 49 47 44 43 46 50 53 54 52 49 49 51 51 51 53 53 54 61 67 66 62 61 60 57 56 55 55 56 58 61 67 71 71 70 71 72 74 76 77 79 82 86 89 91 92 93 95 96 99 101 103
78 77 76 75 75 75 74 74 74 73 73 72 69 65 61 56 52 47 45 46 48 51 54 54 52 53 54 54 52 49 49 51 50 43 38 37 38 44 50 50 52 56 59 59 56 57 58 56 55 54 56 60 65 66 64 64 62 58 57 58 58 58 61 66 70 72 71 70 71 73 75 76 77 80 83 87 89 91 92 93 95 97 99 101 103
80 79 79 78 78 77 76 76 75 75 74 72 68 66 62 57 52 48 46 45 48 51 50 47 44 47 54 56 50 41 41 45 47 45 43 40 41 46 48 50 54 60 65 66 63 61 61 60 57 56 58 58 60 63 65 66 63 59 59 61 61 62 66 71 72 71 70 70 72 74 75 77 78 81 84 88 90 91 92 94 95 97 99 101 103
81 82 81 80 79 78 77 77 76 75 74 71 68 66 63 58 53 49 45 45 49 49 45 40 38 40 49 56 48 36 33 39 41 42 45 47 48 49 47 47 54 59 62 64 63 60 61 62 60 59 61 62 61 63 66 67 64 61 62 64 65 67 72 74 72 70 70 71 73 75 76 77 79 82 85 88 90 91 92 94 95 97 99 101 102
82 83 82 81 80 79 78 78 77 76 73 70 68 65 62 59 54 48 45 46 48 45 39 37 35 32 36 45 47 39 33 32 31 31 35 40 46 52 52 53 58 59 56 59 62 61 62 65 64 61 62 65 65 66 67 66 64 64 65 67 70 72 74 73 71 70 71 72 74 75 75 77 80 83 86 88 90 91 92 94 95 97 98 100 101
82 83 83 82 80 79 79 78 77 74 72 70 67 64 62 59 54 48 45 45 46 41 35 35 40 38 28 22 26 31 30 22 19 26 36 43 49 54 53 54 59 58 56 60 65 65 65 67 68 65 64 66 67 67 66 65 65 67 69 71 73 74 73 71 71 71 72 73 75 75 75 77 81 85 86 88 90 91 92 94 95 96 97 99 100
80 81 82 82 80 79 78 76 73 71 69 68 66 63 61 59 54 48 45 45 44 41 35 34 38 41 29 19 12 19 25 23 26 40 55 59 56 54 52 55 62 63 60 61 66 68 67 67 67 66 66 66 66 65 64 65 67 70 72 74 75 74 72 71 73 74 74 74 75 75 76 78 82 85 87 88 89 91 92 94 95 96 97 98 99
77 77 79 79 78 76 74 70 68 67 66 65 64 62 61 60 54 47 45 46 45 42 40 40 39 38 41 44 35 28 28 30 37 50 64 70 66 59 56 58 61 62 58 58 62 65 64 64 63 62 62 63 63 63 65 68 70 72 74 75 74 73 72 74 76 75 74 74 75 76 77 80 83 86 87 88 90 90 92 94 95 95 96 97 98
74 72 73 73 72 71 69 67 66 66 65 64 63 61 60 60 55 47 44 46 47 45 45 47 46 44 51 59 56 46 41 41 42 46 57 67 68 63 58 55 55 57 59 59 60 60 58 57 57 58 60 62 63 65 67 69 71 73 75 75 75 75 76 76 75 73 73 75 76 77 79 81 84 86 88 89 89 90 92 93 94 95 96 96 96
72 70 69 69 69 68 68 67 66 65 64 63 62 60 59 58 54 47 44 46 49 50 51 53 55 53 56 61 60 55 51 50 51 51 55 60 62 62 60 60 62 66 66 63 59 56 53 53 55 57 59 62 64 67 69 71 73 75 76 76 77 77 75 74 73 74 75 76 77 78 80 82 84 86 88 89 89 90 91 93 93 94 95 95 94
72 71 70 69 68 67 67 65 64 64 63 62 61 60 59 58 56 51 46 47 50 53 55 59 62 63 63 63 62 60 59 58 59 62 64 65 65 66 67 67 69 70 67 62 58 55 55 56 58 59 62 65 67 69 72 74 76 77 78 78 77 75 73 74 75 76 77 77 78 80 82 83 85 87 88 88 89 90 90 92 93 94 94 94 93
73 72 71 69 67 66 64 63 62 62 62 61 61 60 60 61 59 54 49 48 51 55 59 63 68 71 72 71 69 68 67 66 65 65 67 67 68 67 67 66 66 65 61 58 57 57 59 61 62 63 66 68 70 72 75 77 79 79 79 77 76 74 75 76 77 78 78 79 80 81 83 84 86 87 88 88 89 89 90 91 92 93 93 92 91
72 71 70 69 68 66 64 63 62 61 61 61 61 62 62 62 60 55 51 49 51 55 61 67 71 75 79 79 77 73 71 71 71 71 71 71 70 69 68 67 65 62 60 59 60 62 63 65 66 68 70 72 74 76 78 79 79 78 77 77 77 77 77 78 79 80 81 81 81 82 84 85 87 88 88 88 88 88 89 90 91 92 92 91 91
68 67 67 66 66 65 65 64 63 63 62 61 62 63 63 62 59 57 55 54 53 55 60 67 73 77 82 84 82 77 73 70 70 69 69 69 69 70 69 68 66 64 62 63 64 66 67 68 69 71 73 75 76 78 78 77 77 77 78 79 79 79 79 80 81 82 82 81 82 84 85 87 88 89 89 88 88 88 89 90 90 91 90 90 90
60 60 60 61 62 63 64 65 64 64 64 63 63 63 64 63 61 60 59 57 55 57 61 66 71 78 83 85 84 80 75 71 68 66 64 64 64 65 65 66 66 65 65 66 68 69 70 71 72 74 75 76 77 77 77 77 79 80 81 82 82 82 83 83 83 82 82 82 83 85 87 89 89 89 88 87 87 87 88 89 89 89 90 90 89
58 58 59 60 60 61 61 62 63 63 64 64 63 63 63 63 62 62 60 57 56 57 60 65 70 76 81 85 85 83 80 76 72 68 66 65 64 65 65 66 66 67 68 69 71 72 72 73 74 75 75 76 77 78 79 81 83 83 84 84 85 85 85 84 83 82 82 83 85 88 90 90 89 88 87 86 86 86 87 88 88 89 89 89 89
59 60 60 60 60 60 59 59 59 60 61 62 63 63 63 63 63 62 61 59 57 57 59 64 69 74 79 84 87 87 86 83 80 77 74 73 72 71 72 72 72 72 73 74 74 75 75 76 76 77 78 80 81 83 84 85 86 86 86 86 86 86 85 84 83 83 84 86 88 90 90 89 88 87 86 85 85 86 87 87 88 88 89 89 88
Wind_Direction
241 243 245 246 247 246 247 249 251 253 255 257 260 264 266 270 273 276 278 279 282 284 287 291 293 296 299 302 305 307 308 309 310 313 317 320 321 320 320 323 328 332 334 335 337 339 340 341 343 345 346 346 346 347 349 350 351 352 355 358 360 0 360 359 359 359 359 360 360 2 7 8 3 358 353 352 352 352 350 347 345 343 341 340 340
243 245 248 249 250 251 251 253 254 256 259 261 263 266 268 270 272 275 276 278 279 282 286 290 293 295 297 299 302 304 305 306 308 311 313 316 318 319 319 321 325 329 331 332 333 336 339 341 344 346 347 344 343 345 346 348 350 350 349 352 354 356 357 357 358 358 359 358 357 359 4 5 1 355 349 346 345 345 344 344 343 341 338 338 338
246 248 250 251 252 253 254 255 257 259 261 263 265 267 269 270 271 273 275 277 278 281 286 289 291 294 296 298 300 302 302 303 306 309 311 313 315 317 319 320 322 326 328 330 331 333 336 339 342 345 346 344 343 345 346 347 347 345 344 343 343 346 350 353 354 355 357 358 356 357 1 1 357 352 348 343 340 340 339 340 339 339 339 339 339
248 250 251 253 254 255 256 258 259 261 263 264 266 268 269 271 271 273 275 277 279 282 286 288 290 292 294 297 298 299 300 301 304 307 309 311 313 315 318 320 321 322 325 327 328 330 334 336 339 342 343 342 339 339 341 343 343 340 340 338 335 336 342 347 350 352 354 356 357 357 359 358 353 349 345 340 338 338 338 337 337 338 340 340 338
250 252 253 254 255 256 257 259 260 262 264 265 267 268 269 270 271 272 274 277 280 282 285 287 289 291 293 295 296 297 298 300 302 305 308 310 311 313 316 319 321 321 322 324 325 327 331 333 335 337 338 337 333 331 334 337 338 336 334 333 330 331 335 340 344 347 350 354 355 356 357 357 352 347 342 338 337 337 337 336 336 337 338 338 338
252 253 254 255 256 257 257 259 260 262 263 265 267 268 269 270 271 272 274 276 279 281 284 287 289 291 292 293 294 296 298 299 301 304 305 307 309 311 313 317 319 319 320 321 321 325 329 330 331 333 333 332 331 330 331 332 333 332 330 328 326 326 329 335 338 342 346 350 353 354 354 355 352 348 342 338 336 336 336 336 336 337 338 338 338
251 253 254 255 256 257 258 259 260 261 263 265 266 267 268 269 270 272 273 275 278 281 284 287 288 290 290 291 293 296 297 299 300 302 304 305 307 308 311 314 317 317 318 317 318 323 327 328 328 329 329 329 329 329 329 328 328 330 329 326 324 322 324 330 335 337 342 348 351 351 351 352 350 347 344 340 338 337 336 335 335 336 337 337 337
249 251 253 254 256 257 258 259 260 262 263 264 265 266 268 269 270 272 274 276 278 281 283 285 286 288 289 290 292 294 296 297 299 301 302 303 305 306 309 312 314 314 315 314 316 321 325 325 326 326 327 328 328 328 327 326 326 328 328 327 324 321 322 329 333 335 339 347 350 349 349 349 348 346 344 342 340 339 338 336 334 335 336 337 338
250 251 253 255 257 258 259 260 261 262 263 264 265 266 267 269 271 273 274 276 278 280 282 284 285 286 288 290 291 293 294 295 297 299 300 301 303 305 307 310 312 312 312 312 315 319 322 323 324 324 324 326 327 327 327 325 324 326 327 326 323 320 322 328 332 333 338 346 350 348 347 347 346 345 343 342 341 340 338 336 335 335 336 337 338
252 253 254 256 258 260 261 262 262 263 264 265 266 268 269 270 271 273 274 276 277 280 282 283 284 286 287 289 290 291 292 293 295 297 299 300 302 304 306 308 310 310 310 311 314 317 320 321 321 321 323 324 325 326 326 325 323 324 325 323 321 320 323 328 331 332 337 345 348 348 346 345 344 343 342 342 342 341 338 336 336 336 336 337 338
253 254 255 257 259 261 262 262 264 264 266 267 268 269 270 272 273 274 274 276 277 279 281 283 284 286 287 288 289 290 291 292 294 296 297 299 301 303 305 306 308 308 309 311 313 315 318 319 319 320 321 322 323 324 325 324 321 322 323 321 319 320 323 327 330 332 338 344 347 347 346 344 343 342 342 342 342 341 338 337 336 336 336 338 339
254 255 257 258 260 261 262 262 263 264 265 266 268 269 271 272 273 274 275 276 278 280 281 283 285 286 287 288 289 290 291 292 294 295 297 298 300 302 303 305 306 306 308 310 311 313 316 317 317 318 319 320 321 322 322 322 319 320 322 319 317 318 321 325 328 332 338 343 345 345 345 343 342 342 341 341 342 341 339 338 337 337 337 338 339
256 257 258 259 260 261 262 263 264 264 265 266 267 269 270 272 273 274 276 277 279 280 282 283 285 286 287 288 289 290 291 292 293 295 296 297 299 301 302 304 304 305 307 309 309 311 314 315 315 317 317 318 319 319 320 320 318 320 321 318 315 315 317 323 328 332 339 343 344 344 343 342 341 341 341 341 341 340 339 338 337 337 337 339 340
258 258 259 260 261 261 263 263 264 264 265 266 267 268 270 271 272 274 275 277 279 280 281 283 284 285 286 287 288 290 290 291 292 294 295 296 297 299 301 302 302 304 305 307 307 309 312 313 313 315 315 316 317 317 318 318 317 318 319 316 313 313 316 322 328 333 339 342 342 342 341 340 340 340 340 340 340 340 339 338 338 338 338 339 340
259 260 261 261 261 262 262 263 264 264 265 265 267 268 269 271 272 273 274 276 278 279 280 281 282 283 284 286 287 288 288 289 291 292 293 294 295 298 299 300 301 302 304 305 305 306 309 311 312 312 313 315 315 316 316 316 315 316 316 313 311 311 314 321 327 333 339 341 341 340 339 338 339 339 339 339 339 340 339 339 339 338 339 340 340
260 260 260 261 261 261 262 263 264 265 266 266 267 268 269 270 271 273 274 276 277 278 279 280 280 281 283 284 285 285 286 287 288 289 290 292 294 296 298 299 300 301 302 303 303 304 307 309 310 310 312 313 314 314 314 314 312 313 313 311 310 309 312 319 326 333 338 340 339 338 337 337 337 338 338 338 339 340 340 339 339 339 339 341 341
260 260 260 261 262 262 263 264 265 266 267 268 268 268 268 269 271 273 275 276 277 277 278 278 279 280 281 282 283 283 284 285 286 288 289 291 293 295 297 298 299 299 300 300 301 302 305 307 308 308 309 311 312 313 313 311 310 311 311 309 308 307 309 316 325 332 337 339 337 336 335 335 336 337 337 337 338 339 340 339 339 339 340 341 341
260 260 261 262 263 264 265 266 266 266 267 268 268 268 269 269 270 272 273 274 275 275 276 278 279 279 280 280 281 281 282 284 286 288 289 291 292 294 296 297 298 297 297 298 299 301 304 306 306 306 308 309 310 311 312 310 309 310 310 308 306 306 308 315 324 332 337 337 335 334 334 334 335 336 336 336 337 339 340 340 339 340 341 342 342
262 263 264 264 265 265 266 267 268 268 268 269 269 270 271 271 271 272 272 273 274 274 275 276 277 278 279 279 280 281 283 285 286 287 288 290 291 293 295 296 295 294 295 296 298 300 303 304 304 305 306 308 308 310 310 309 309 310 309 307 306 306 309 317 326 333 336 336 334 332 332 333 333 334 335 336 336 338 340 340 339 340 341 342 342
265 266 267 267 267 266 266 267 268 269 270 270 271 271 272 272 272 273 273 273 274 275 276 276 277 278 279 279 280 281 283 284 284 286 287 289 291 293 294 293 292 292 294 295 296 299 301 302 303 304 305 306 306 308 308 308 308 309 308 307 306 307 311 319 328 334 335 333 332 330 330 331 332 332 334 335 336 338 339 340 339 340 341 342 343
267 267 267 267 267 268 268 268 268 269 270 271 271 272 273 273 274 274 274 274 275 275 276 277 277 278 278 279 280 281 282 283 284 286 287 289 291 292 291 290 290 291 292 293 294 297 300 301 302 303 304 304 304 304 305 306 307 308 306 306 306 308 314 322 330 333 333 331 330 329 329 330 330 331 332 334 335 337 339 339 339 340 341 343 343
268 269 269 268 268 268 269 270 270 271 271 272 273 273 274 274 275 275 276 276 276 277 277 277 278 278 279 280 281 282 283 284 286 287 288 290 291 291 290 290 290 291 292 292 294 298 299 301 302 302 302 302 301 301 302 304 305 305 304 304 306 309 317 325 331 332 331 329 328 328 328 328 329 330 331 333 334 336 338 339 339 340 342 343 344
270 270 271 271 271 270 271 272 272 273 274 274 275 275 276 276 276 276 277 277 278 278 279 278 279 279 281 282 282 283 284 286 288 288 288 290 291 292 291 292 293 293 293 295 298 299 300 301 302 302 301 300 299 298 300 302 303 302 302 303 307 312 320 327 330 329 329 328 327 326 326 327 328 328 330 332 333 335 338 339 339 340 342 343 344
270 270 272 273 273 273 274 274 275 275 276 276 277 278 279 279 278 278 278 279 280 280 280 279 279 279 281 282 283 284 286 287 288 287 287 288 290 292 292 294 295 296 297 299 300 301 302 302 301 299 297 297 295 295 297 300 300 299 300 304 309 315 322 326 327 328 328 326 325 325 324 325 326 327 329 331 333 335 337 338 339 340 341 342 343
268 269 271 272 273 274 275 276 276 277 277 278 279 280 280 280 280 279 279 278 279 280 280 280 281 281 281 282 283 284 284 285 285 285 286 289 291 293 295 297 298 298 300 303 302 300 300 299 297 296 295 294 294 294 296 297 297 295 298 305 311 315 320 323 325 326 326 325 324 323 323 323 324 326 327 329 332 334 337 337 338 339 341 342 343
265 267 268 270 271 273 275 276 277 277 278 279 280 280 280 280 280 279 279 279 278 278 278 279 280 281 281 281 282 283 283 282 283 284 286 288 291 294 297 300 300 302 305 305 301 296 294 293 292 294 294 293 294 294 293 294 293 292 297 305 310 313 318 322 324 325 325 323 322 321 321 322 323 324 326 328 331 334 336 336 337 339 340 342 343
265 265 266 267 269 271 272 273 275 276 278 279 279 280 280 280 279 279 279 279 278 278 279 280 280 281 281 280 280 280 279 279 280 281 281 283 285 292 299 301 300 303 308 302 292 290 292 292 291 292 294 296 295 293 292 291 288 288 297 306 309 312 317 322 323 324 323 321 320 319 319 320 321 323 325 327 330 333 334 335 336 338 339 341 342
267 267 267 267 268 269 270 271 272 274 276 277 278 279 280 280 279 279 279 279 279 279 279 280 280 281 280 278 277 275 272 273 274 272 273 276 280 288 297 298 293 292 293 291 290 293 294 293 294 296 298 299 297 295 292 288 285 288 299 306 308 311 318 321 321 321 321 319 318 318 317 318 320 322 324 327 329 332 333 334 335 337 339 341 342
268 269 269 269 269 269 269 270 272 273 275 276 278 279 280 280 280 280 281 281 281 281 280 280 281 280 277 273 270 267 266 267 266 266 270 278 283 289 295 297 294 292 289 285 287 294 297 295 295 297 299 299 301 301 296 287 283 291 301 306 308 312 317 319 318 318 319 318 317 316 315 316 318 321 323 326 329 330 331 332 334 336 338 340 342
268 269 269 270 270 270 270 270 271 273 274 276 279 280 281 281 280 280 280 279 280 281 281 281 282 280 274 267 262 259 260 262 264 268 274 281 288 293 296 297 298 302 301 293 286 287 292 294 295 296 297 298 301 304 300 289 284 293 302 305 307 311 315 316 316 316 317 316 315 314 314 315 317 320 323 326 328 329 330 331 333 335 338 340 341
267 268 269 270 270 271 271 271 271 272 273 275 277 279 280 279 279 278 277 277 277 279 279 279 279 276 269 262 258 257 260 264 268 270 272 277 285 290 291 289 292 301 306 302 296 293 290 289 294 297 295 295 299 303 301 290 286 295 303 304 306 309 311 313 313 313 314 315 314 312 312 314 317 320 323 326 327 328 329 331 332 335 337 339 340
266 267 268 269 270 271 271 271 270 271 272 273 275 277 278 278 279 280 278 276 275 275 275 274 273 270 266 261 259 262 265 269 271 271 273 278 280 280 280 281 284 293 301 302 300 298 291 286 290 294 290 288 293 300 299 290 286 295 302 303 304 307 308 309 310 311 312 313 312 310 311 314 317 321 323 325 326 327 328 330 332 334 336 338 339
266 267 268 269 269 270 271 271 271 271 272 273 274 275 276 276 277 279 280 278 276 274 272 270 268 267 264 259 261 267 270 270 270 271 273 279 280 277 278 279 279 285 295 295 289 287 282 280 284 287 283 282 286 292 296 292 287 292 299 302 303 304 304 305 307 309 311 312 310 309 311 314 317 321 323 324 325 326 327 329 331 333 335 337 338
266 267 267 268 269 270 270 271 271 271 272 273 275 276 277 277 277 277 277 275 273 271 270 269 267 265 263 262 265 269 271 272 274 275 276 279 279 276 277 275 273 276 280 274 268 269 269 271 277 276 274 277 280 283 290 291 288 290 296 299 300 302 302 303 306 309 311 310 308 308 311 314 317 321 322 323 324 325 326 328 330 333 335 336 337
266 266 267 267 268 269 270 270 271 271 272 273 275 277 279 279 280 280 276 270 267 266 267 268 266 265 264 264 265 266 268 271 275 279 283 286 282 276 275 269 261 259 260 256 255 260 265 274 281 275 268 271 274 276 282 288 287 288 293 297 299 300 300 302 306 308 309 308 307 308 311 314 317 320 322 322 323 324 325 327 330 332 334 335 336
266 266 266 267 267 268 269 269 270 271 272 273 275 277 279 280 281 281 276 269 263 260 262 266 267 266 263 260 257 260 267 272 272 272 279 285 279 273 269 259 247 248 256 257 256 259 265 276 283 273 263 265 270 270 276 283 284 285 291 295 297 298 299 302 306 307 307 306 305 307 310 313 317 319 321 321 322 323 324 327 329 331 333 334 335
265 265 265 266 267 267 267 268 269 270 272 273 275 277 279 281 282 280 277 269 262 258 259 261 262 263 260 255 253 258 268 274 273 268 267 270 266 260 256 249 244 250 258 259 260 262 267 274 279 271 261 261 266 268 272 278 281 284 289 293 295 297 300 303 305 306 305 305 305 307 310 313 316 318 319 320 320 322 323 326 328 330 331 333 334
264 264 264 264 265 265 266 267 269 270 272 274 276 277 279 281 281 280 276 268 261 258 255 252 254 261 260 255 254 262 273 277 273 260 254 257 255 247 240 237 239 246 254 258 261 266 269 273 278 274 263 258 262 265 269 274 279 283 288 292 295 297 300 302 304 304 304 303 304 307 309 312 315 317 318 318 319 321 323 325 327 329 330 332 333
266 263 262 262 263 263 264 266 268 270 273 274 275 276 278 279 279 278 275 267 260 255 249 241 243 254 260 257 255 256 264 275 271 252 248 256 252 241 237 236 238 245 254 257 260 266 270 272 276 275 266 259 258 261 265 271 277 283 288 291 294 296 299 301 303 303 302 302 304 306 308 311 314 316 316 317 318 320 322 324 326 328 329 331 332
267 263 261 260 260 262 263 266 268 270 272 273 273 275 276 277 277 276 272 265 258 250 238 230 233 239 244 253 253 243 239 252 259 246 248 255 247 238 238 240 241 248 257 258 259 266 270 270 273 274 268 261 258 259 264 272 279 284 288 290 292 296 299 301 301 301 302 302 304 305 307 310 313 314 315 316 317 319 321 323 325 326 328 330 331
268 263 260 259 259 261 263 265 267 269 271 271 273 274 274 274 274 272 268 262 255 243 226 218 227 231 213 177 186 224 227 227 228 229 237 242 238 234 238 241 239 242 249 254 258 264 267 269 272 274 270 263 260 261 267 274 280 284 287 289 292 296 299 299 299 300 302 302 303 304 306 309 311 313 314 315 316 318 319 321 323 325 327 328 330
268 263 260 259 260 261 263 264 265 267 269 270 271 272 272 272 271 268 264 259 251 238 222 212 216 213 192 181 192 218 226 223 219 219 224 228 230 234 243 244 238 238 246 254 260 265 268 270 273 272 266 262 261 265 271 277 280 283 286 290 293 296 297 298 299 300 301 302 302 303 305 308 310 312 313 314 315 317 318 320 322 324 326 327 329
266 262 259 259 259 260 261 262 264 265 267 268 269 270 270 271 269 265 260 255 247 235 222 213 209 199 189 194 210 226 228 223 220 218 220 224 230 238 245 245 241 245 255 263 267 270 271 270 268 265 262 261 264 269 274 278 281 284 287 290 293 295 296 297 298 299 300 301 301 302 304 307 309 310 312 313 314 315 317 319 321 323 324 326 327
262 258 256 256 257 259 260 262 263 265 266 267 268 268 269 269 268 263 258 253 246 236 224 217 213 208 202 206 218 232 237 235 235 236 236 237 241 246 250 250 250 255 263 269 272 272 269 265 263 262 263 265 269 273 276 279 282 285 288 290 292 294 295 296 297 298 299 300 299 300 303 305 308 309 310 312 313 314 316 318 319 321 323 324 326
257 255 253 254 257 259 261 262 263 265 266 266 267 267 266 266 265 261 256 252 247 239 229 222 220 221 221 221 226 236 245 248 248 248 248 249 252 256 259 259 260 262 267 271 273 271 267 264 264 265 267 270 273 276 278 280 283 285 287 289 291 292 293 294 296 297 298 298 298 299 301 304 306 308 309 311 312 313 315 316 318 319 321 323 325
255 253 253 255 257 260 261 262 263 264 266 266 266 266 265 263 262 259 255 251 247 240 232 226 223 224 227 231 233 238 245 250 252 252 253 255 258 261 264 265 265 266 269 270 269 267 265 265 267 268 270 272 274 276 278 280 283 285 286 287 289 290 292 294 295 296 297 297 297 298 301 303 305 307 308 309 310 312 313 315 316 318 320 321 324
256 256 256 258 260 262 262 262 263 264 265 266 266 266 265 263 261 258 253 249 247 242 235 229 225 224 226 231 236 241 245 251 254 255 256 259 261 263 265 266 266 267 267 267 266 265 265 266 268 270 271 273 275 277 279 281 282 283 285 286 288 290 292 293 294 295 296 296 297 298 300 302 304 306 307 308 309 311 312 314 315 316 318 320 322
258 260 260 261 262 263 263 263 264 264 265 266 267 266 265 263 261 258 253 250 249 246 240 234 230 227 226 229 234 241 247 252 256 258 260 261 263 264 266 266 267 267 267 267 267 267 267 268 269 270 272 274 275 277 278 279 281 283 285 287 289 290 291 292 293 294 294 295 296 297 299 301 303 304 306 307 308 310 311 312 313 315 317 319 321
259 260 261 261 262 263 263 264 265 266 266 266 267 266 265 263 261 259 256 253 251 249 245 239 236 233 230 230 235 241 247 252 255 257 259 260 261 263 264 265 266 267 266 266 266 266 267 268 269 271 273 274 275 276 277 279 281 283 285 287 288 289 290 291 292 292 293 293 294 296 298 300 302 303 305 306 308 309 310 311 312 314 315 317 320
258 260 261 262 263 264 265 265 266 266 266 266 266 266 265 263 261 259 258 256 253 250 246 243 239 237 235 234 237 241 246 249 251 253 255 257 258 259 260 262 263 263 264 265 265 267 268 269 270 272 272 273 273 275 277 279 281 283 285 286 287 288 289 290 290 291 291 292 293 295 297 299 301 302 304 305 307 307 308 309 311 312 314 316 318
260 262 263 265 266 267 267 268 268 267 267 266 266 265 264 263 262 261 259 258 255 252 248 245 243 241 239 239 240 243 246 249 250 251 252 254 255 257 258 259 261 262 263 265 266 267 268 269 270 271 271 272 274 276 278 280 281 282 283 284 285 286 287 288 288 289 289 291 293 295 296 298 300 301 303 304 305 306 307 308 309 311 312 314 316
Height
10961 10962 10963 10964 10964 10965 10966 10966 10967 10967 10968 10968 10969 10970 10970 10970 10971 10971 10970 10970 10970 10970 10969 10969 10968 10968 10967 10967 10966 10965 10963 10961 10961 10960 10960 10959 10959 10958 10957 10956 10954 10953 10951 10948 10946 10944 10941 10937 10934 10931 10928 10925 10922 10920 10918 10916 10913 10911 10909 10907 10904 10902 10900 10897 10894 10890 10886 10882 10880 10877 10873 10870 10867 10866 10864 10862 10859 10858 10856 10854 10852 10850 10847 10844 10841
10958 10959 10960 10960 10961 10962 10962 10963 10963 10964 10965 10966 10966 10967 10968 10968 10968 10967 10967 10967 10967 10967 10966 10966 10965 10964 10964 10964 10963 10962 10960 10958 10958 10957 10957 10956 10956 10955 10954 10953 10952 10950 10947 10945 10942 10940 10938 10935 10931 10928 10926 10923 10920 10917 10915 10913 10910 10908 10906 10903 10901 10899 10897 10895 10892 10889 10885 10880 10876 10873 10869 10866 10864 10863 10860 10858 10856 10854 10852 10850 10848 10846 10843 10839 10835
10955 10956 10956 10956 10958 10958 10958 10959 10960 10961 10961 10962 10963 10964 10965 10965 10965 10964 10963 10963 10963 10963 10963 10963 10962 10961 10961 10961 10960 10959 10957 10955 10954 10954 10954 10953 10952 10951 10951 10950 10949 10947 10944 10941 10938 10936 10934 10932 10929 10926 10923 10920 10918 10915 10913 10911 10908 10906 10903 10900 10898 10896 10894 10892 10890 10887 10884 10879 10875 10870 10866 10863 10861 10859 10857 10854 10852 10850 10848 10845 10843 10840 10836 10831 10827
10952 10952 10952 10953 10954 10954 10954 10955 10956 10957 10958 10959 10959 10960 10961 10961 10961 10960 10960 10960 10960 10960 10960 10959 10959 10958 10957 10958 10957 10956 10954 10952 10951 10951 10950 10949 10948 10948 10947 10946 10945 10943 10941 10937 10934 10932 10930 10928 10926 10923 10921 10918 10915 10912 10910 10908 10906 10903 10900 10897 10895 10893 10891 10889 10887 10885 10882 10878 10874 10869 10864 10861 10857 10854 10852 10850 10847 10845 10842 10839 10836 10833 10829 10824 10820
10948 10948 10948 10949 10949 10950 10951 10951 10952 10953 10954 10955 10955 10956 10957 10957 10957 10957 10956 10956 10956 10956 10956 10956 10955 10954 10954 10954 10953 10952 10951 10949 10948 10947 10947 10946 10945 10944 10943 10942 10941 10940 10937 10933 10930 10928 10927 10924 10923 10921 10919 10916 10912 10909 10907 10905 10904 10901 10898 10895 10892 10889 10887 10885 10883 10881 10878 10875 10871 10868 10864 10860 10856 10852 10849 10845 10842 10839 10836 10833 10829 10825 10821 10817 10812
10943 10943 10944 10944 10945 10946 10947 10947 10948 10949 10950 10950 10951 10952 10953 10953 10953 10953 10953 10952 10952 10952 10952 10952 10951 10951 10950 10950 10949 10949 10947 10946 10945 10944 10943 10942 10941 10940 10939 10938 10937 10936 10933 10929 10926 10925 10924 10921 10919 10917 10915 10913 10909 10906 10904 10902 10900 10898 10895 10892 10889 10886 10883 10881 10878 10876 10873 10870 10867 10864 10861 10857 10854 10850 10846 10842 10837 10833 10830 10826 10822 10818 10814 10808 10803
10938 10939 10939 10940 10940 10941 10942 10943 10944 10945 10946 10946 10947 10948 10949 10949 10949 10949 10949 10948 10948 10948 10949 10948 10948 10947 10946 10945 10945 10945 10944 10942 10941 10941 10939 10938 10937 10936 10935 10934 10933 10931 10929 10925 10922 10921 10921 10918 10916 10914 10912 10909 10906 10903 10901 10898 10896 10894 10891 10889 10886 10883 10880 10877 10874 10871 10869 10865 10861 10859 10856 10853 10850 10846 10842 10838 10833 10828 10824 10820 10815 10811 10807 10802 10796
10933 10933 10934 10935 10935 10936 10938 10940 10940 10941 10941 10942 10942 10943 10944 10944 10945 10944 10944 10944 10944 10944 10945 10944 10944 10942 10941 10941 10941 10941 10939 10938 10938 10937 10936 10934 10933 10932 10931 10930 10929 10927 10924 10920 10917 10917 10917 10915 10913 10910 10908 10906 10903 10899 10897 10894 10891 10889 10887 10884 10882 10879 10876 10873 10870 10867 10865 10860 10856 10853 10851 10848 10845 10841 10837 10833 10829 10824 10820 10815 10810 10804 10800 10795 10788
10928 10928 10929 10929 10929 10931 10934 10935 10936 10936 10937 10937 10938 10938 10939 10940 10940 10940 10940 10940 10940 10940 10940 10940 10939 10938 10937 10937 10936 10936 10935 10934 10934 10934 10932 10930 10929 10928 10927 10925 10924 10922 10919 10916 10913 10913 10913 10911 10909 10906 10904 10902 10899 10896 10893 10889 10887 10884 10882 10880 10877 10875 10872 10869 10866 10864 10861 10856 10852 10849 10846 10843 10840 10835 10831 10827 10823 10818 10814 10810 10805 10799 10794 10787 10780
10923 10924 10924 10924 10924 10926 10929 10930 10931 10931 10932 10932 10933 10933 10934 10935 10935 10935 10935 10935 10936 10936 10935 10935 10935 10934 10933 10932 10932 10931 10930 10929 10929 10930 10928 10926 10925 10924 10922 10921 10919 10917 10914 10912 10909 10909 10909 10908 10905 10902 10899 10898 10895 10892 10889 10885 10882 10880 10878 10875 10873 10870 10868 10866 10863 10860 10857 10852 10848 10845 10842 10839 10835 10830 10826 10821 10817 10812 10808 10804 10799 10794 10787 10781 10774
10918 10919 10919 10919 10920 10922 10923 10924 10925 10926 10926 10927 10928 10928 10929 10929 10929 10929 10929 10930 10931 10932 10931 10930 10930 10930 10929 10927 10927 10926 10925 10925 10925 10925 10923 10922 10920 10919 10917 10916 10914 10911 10909 10908 10905 10904 10905 10903 10900 10897 10894 10893 10891 10887 10885 10882 10878 10877 10875 10871 10869 10866 10864 10862 10859 10856 10852 10848 10844 10841 10838 10834 10830 10825 10820 10816 10811 10806 10802 10798 10793 10787 10781 10774 10767
10913 10914 10914 10915 10916 10916 10917 10918 10919 10920 10920 10921 10922 10923 10924 10923 10922 10923 10923 10925 10926 10927 10926 10926 10926 10925 10924 10923 10922 10921 10920 10920 10919 10919 10918 10917 10916 10914 10912 10910 10908 10905 10904 10903 10900 10900 10900 10899 10896 10892 10889 10888 10886 10882 10880 10878 10875 10873 10870 10867 10865 10863 10861 10858 10855 10852 10848 10843 10839 10836 10833 10829 10824 10820 10815 10810 10805 10801 10796 10792 10787 10781 10775 10768 10761
10908 10909 10909 10910 10911 10910 10910 10912 10912 10913 10914 10915 10916 10917 10918 10917 10917 10917 10918 10919 10921 10921 10921 10922 10921 10920 10919 10918 10917 10916 10915 10914 10914 10913 10913 10912 10911 10909 10907 10905 10902 10900 10899 10897 10895 10895 10895 10893 10891 10888 10885 10883 10880 10877 10875 10873 10869 10867 10865 10862 10860 10859 10857 10855 10851 10848 10843 10838 10834 10831 10827 10823 10819 10815 10810 10805 10800 10795 10791 10786 10781 10776 10769 10762 10755
10902 10903 10903 10905 10905 10904 10905 10905 10905 10906 10908 10909 10911 10912 10912 10911 10911 10911 10912 10914 10916 10916 10916 10917 10917 10915 10914 10913 10912 10911 10909 10908 10908 10907 10907 10906 10905 10905 10902 10899 10896 10894 10893 10891 10889 10889 10890 10888 10886 10883 10880 10878 10874 10871 10869 10867 10864 10861 10859 10856 10855 10854 10853 10851 10848 10843 10838 10833 10829 10826 10822 10819 10814 10809 10805 10800 10795 10791 10785 10780 10775 10769 10762 10755 10748
10895 10896 10897 10897 10897 10897 10898 10898 10898 10899 10901 10903 10905 10906 10907 10905 10905 10905 10907 10908 10910 10910 10911 10911 10911 10910 10909 10908 10907 10904 10902 10901 10901 10901 10900 10899 10900 10900 10898 10894 10890 10888 10886 10885 10883 10883 10883 10882 10880 10877 10875 10873 10869 10865 10863 10862 10859 10857 10854 10852 10850 10848 10847 10846 10843 10839 10833 10829 10825 10821 10818 10814 10809 10805 10800 10795 10790 10785 10779 10774 10768 10762 10755 10748 10739
10888 10888 10888 10889 10889 10889 10890 10891 10891 10892 10894 10896 10899 10900 10900 10899 10898 10899 10901 10903 10903 10904 10904 10904 10903 10903 10903 10903 10900 10897 10895 10894 10895 10894 10893 10892 10893 10895 10893 10889 10885 10881 10879 10878 10876 10877 10877 10876 10874 10871 10869 10867 10864 10860 10857 10856 10854 10852 10850 10847 10845 10844 10842 10841 10839 10834 10829 10824 10820 10817 10813 10809 10804 10799 10795 10790 10785 10779 10773 10767 10762 10756 10749 10741 10732
10879 10879 10880 10880 10881 10882 10884 10884 10885 10886 10887 10889 10891 10892 10892 10893 10893 10893 10894 10896 10897 10897 10896 10896 10896 10896 10896 10895 10893 10890 10888 10888 10888 10887 10886 10886 10887 10888 10887 10884 10879 10875 10872 10870 10869 10870 10870 10870 10868 10865 10862 10861 10858 10854 10852 10850 10848 10847 10844 10842 10840 10839 10838 10836 10834 10829 10824 10819 10816 10812 10808 10803 10798 10794 10789 10784 10779 10773 10767 10762 10756 10750 10743 10735 10726
10869 10870 10872 10874 10876 10877 10877 10877 10877 10879 10881 10881 10881 10882 10884 10886 10888 10888 10888 10888 10889 10889 10889 10889 10889 10889 10888 10887 10885 10882 10881 10881 10881 10880 10879 10879 10880 10880 10880 10878 10873 10868 10865 10862 10861 10862 10863 10862 10860 10858 10856 10854 10852 10849 10847 10845 10842 10841 10839 10836 10835 10834 10832 10831 10829 10824 10819 10814 10811 10807 10803 10798 10793 10789 10784 10779 10774 10768 10762 10756 10750 10744 10737 10729 10720
10863 10864 10866 10869 10871 10871 10870 10869 10869 10871 10872 10873 10873 10874 10875 10878 10879 10880 10881 10880 10880 10880 10882 10883 10882 10880 10879 10879 10877 10875 10875 10875 10874 10871 10870 10871 10872 10872 10872 10871 10866 10861 10857 10854 10853 10854 10854 10854 10853 10851 10848 10847 10845 10844 10842 10839 10836 10835 10833 10831 10829 10828 10827 10825 10822 10817 10812 10809 10806 10802 10798 10793 10789 10784 10779 10774 10768 10762 10756 10750 10744 10738 10730 10723 10715
10858 10859 10860 10862 10862 10862 10862 10861 10861 10862 10863 10863 10864 10865 10866 10868 10869 10871 10872 10872 10871 10872 10873 10874 10874 10872 10870 10869 10868 10868 10868 10867 10866 10863 10861 10863 10864 10864 10863 10862 10858 10853 10850 10848 10846 10846 10846 10846 10845 10843 10841 10839 10838 10838 10836 10832 10830 10829 10828 10826 10824 10823 10822 10819 10815 10810 10806 10803 10800 10796 10792 10787 10783 10778 10774 10768 10762 10756 10750 10744 10738 10732 10725 10718 10709
10852 10852 10853 10854 10854 10854 10854 10853 10853 10854 10855 10855 10855 10856 10857 10858 10860 10861 10861 10861 10862 10863 10865 10865 10864 10862 10861 10859 10859 10859 10858 10858 10858 10855 10853 10854 10856 10855 10853 10852 10849 10846 10844 10841 10839 10839 10838 10838 10837 10835 10834 10833 10832 10832 10830 10826 10825 10824 10823 10821 10819 10818 10817 10813 10808 10804 10801 10798 10794 10790 10786 10781 10777 10772 10768 10762 10757 10751 10745 10739 10733 10727 10719 10712 10703
10845 10846 10846 10847 10848 10848 10847 10846 10846 10847 10848 10848 10848 10849 10849 10851 10852 10852 10851 10851 10851 10853 10855 10856 10854 10852 10851 10850 10850 10849 10847 10848 10849 10847 10844 10844 10845 10844 10842 10841 10840 10838 10836 10834 10833 10832 10831 10830 10830 10828 10827 10826 10825 10825 10824 10821 10819 10818 10817 10815 10814 10813 10811 10807 10803 10799 10796 10792 10788 10784 10779 10775 10771 10767 10762 10757 10752 10746 10741 10734 10728 10721 10713 10705 10697
10839 10840 10839 10840 10841 10841 10841 10840 10840 10841 10841 10841 10842 10842 10842 10844 10845 10845 10843 10843 10843 10844 10846 10847 10846 10843 10842 10841 10841 10839 10838 10838 10840 10838 10834 10833 10834 10834 10832 10831 10830 10829 10827 10826 10826 10825 10824 10823 10823 10822 10821 10820 10819 10818 10817 10815 10814 10813 10812 10810 10809 10807 10804 10800 10797 10794 10790 10786 10782 10777 10773 10769 10765 10761 10756 10752 10747 10741 10735 10729 10722 10715 10707 10699 10691
10831 10831 10832 10832 10833 10834 10834 10835 10835 10835 10834 10834 10835 10835 10835 10836 10838 10838 10837 10836 10836 10837 10837 10838 10839 10837 10835 10833 10832 10830 10829 10830 10830 10828 10825 10824 10824 10824 10823 10823 10822 10820 10819 10819 10819 10818 10817 10817 10817 10816 10815 10814 10813 10812 10811 10810 10808 10808 10806 10805 10803 10801 10797 10794 10791 10788 10784 10780 10775 10771 10767 10764 10760 10756 10751 10747 10742 10736 10730 10723 10717 10710 10702 10695 10687
10824 10824 10824 10825 10825 10826 10827 10828 10828 10828 10828 10828 10829 10829 10828 10828 10829 10830 10830 10830 10829 10829 10829 10829 10830 10830 10829 10827 10824 10822 10821 10822 10821 10819 10818 10817 10817 10816 10815 10815 10815 10814 10812 10813 10812 10812 10812 10811 10811 10810 10809 10807 10807 10806 10804 10803 10802 10802 10800 10799 10796 10793 10791 10788 10785 10781 10777 10774 10770 10765 10762 10758 10754 10750 10746 10741 10736 10730 10724 10718 10712 10705 10698 10690 10682
10818 10817 10817 10818 10818 10819 10820 10820 10820 10821 10821 10822 10823 10822 10821 10821 10821 10821 10822 10822 10821 10821 10821 10822 10822 10822 10821 10819 10816 10814 10813 10814 10814 10813 10812 10812 10811 10809 10807 10807 10808 10808 10807 10807 10807 10806 10806 10806 10805 10804 10802 10801 10800 10799 10797 10796 10795 10794 10793 10791 10788 10785 10783 10781 10779 10775 10771 10768 10764 10760 10756 10753 10749 10745 10740 10735 10730 10724 10719 10713 10707 10701 10694 10686 10677
10811 10811 10811 10812 10812 10812 10813 10813 10813 10813 10814 10815 10815 10815 10814 10814 10814 10814 10814 10813 10813 10812 10813 10814 10815 10815 10813 10811 10809 10807 10806 10808 10808 10808 10806 10805 10804 10802 10801 10801 10802 10802 10803 10803 10802 10801 10800 10799 10798 10798 10796 10794 10793 10792 10790 10789 10788 10787 10786 10784 10781 10779 10777 10775 10772 10769 10766 10762 10758 10755 10751 10748 10744 10740 10735 10730 10725 10720 10715 10710 10704 10698 10690 10682 10673
10804 10804 10805 10806 10806 10806 10806 10805 10805 10806 10806 10807 10808 10809 10808 10807 10807 10807 10807 10805 10805 10805 10805 10805 10806 10806 10805 10803 10801 10800 10801 10802 10801 10800 10798 10796 10796 10796 10796 10796 10795 10797 10798 10798 10796 10795 10794 10793 10792 10791 10790 10789 10788 10786 10784 10783 10782 10781 10780 10778 10776 10773 10771 10769 10766 10763 10760 10757 10753 10750 10746 10743 10739 10735 10731 10726 10721 10716 10711 10706 10700 10694 10686 10677 10668
10796 10796 10797 10798 10798 10798 10798 10797 10797 10797 10798 10799 10801 10801 10801 10801 10801 10801 10799 10797 10796 10796 10796 10798 10799 10797 10795 10795 10794 10794 10795 10794 10792 10791 10791 10790 10790 10790 10790 10790 10790 10790 10791 10791 10791 10790 10788 10787 10786 10785 10784 10784 10783 10781 10779 10777 10776 10776 10775 10773 10770 10768 10766 10763 10761 10758 10755 10752 10748 10745 10742 10738 10734 10730 10726 10721 10716 10712 10707 10702 10696 10689 10681 10672 10663
10788 10789 10789 10790 10790 10790 10790 10789 10789 10789 10790 10791 10793 10794 10795 10794 10793 10794 10793 10790 10789 10788 10789 10791 10791 10788 10786 10787 10786 10785 10785 10785 10784 10784 10785 10785 10784 10783 10784 10785 10784 10782 10782 10782 10783 10784 10783 10780 10780 10779 10779 10779 10777 10776 10774 10773 10771 10771 10770 10767 10764 10762 10760 10758 10755 10752 10749 10746 10743 10740 10737 10734 10730 10725 10721 10716 10711 10707 10702 10697 10690 10683 10675 10667 10659
10780 10781 10781 10781 10782 10782 10782 10782 10782 10782 10783 10784 10786 10787 10788 10787 10786 10786 10785 10784 10783 10782 10782 10784 10785 10782 10780 10779 10777 10775 10776 10779 10780 10779 10778 10777 10778 10777 10777 10778 10777 10776 10775 10774 10774 10775 10775 10775 10774 10774 10774 10773 10772 10771 10770 10768 10767 10766 10765 10762 10759 10756 10754 10752 10749 10747 10744 10741 10738 10735 10732 10728 10725 10720 10715 10711 10706 10702 10697 10691 10684 10677 10670 10662 10655
10771 10772 10773 10773 10773 10773 10773 10774 10774 10774 10776 10777 10778 10780 10780 10780 10778 10777 10777 10778 10778 10777 10777 10778 10777 10775 10773 10771 10769 10768 10770 10773 10774 10773 10770 10770 10772 10774 10774 10773 10772 10772 10772 10772 10770 10769 10769 10770 10772 10772 10770 10768 10767 10766 10765 10763 10763 10762 10759 10756 10753 10750 10748 10746 10743 10741 10739 10736 10732 10729 10726 10723 10719 10714 10709 10705 10701 10696 10691 10685 10679 10672 10664 10657 10650
10763 10764 10764 10765 10765 10765 10765 10765 10766 10766 10767 10768 10770 10771 10773 10773 10773 10771 10769 10769 10770 10770 10769 10769 10769 10767 10765 10763 10761 10762 10765 10767 10766 10766 10765 10764 10765 10770 10773 10772 10769 10769 10771 10772 10773 10772 10770 10770 10771 10771 10768 10764 10762 10761 10760 10759 10759 10758 10755 10751 10747 10745 10743 10740 10738 10736 10733 10730 10726 10723 10720 10716 10712 10708 10703 10699 10695 10691 10686 10680 10673 10667 10659 10652 10646
10754 10755 10755 10756 10756 10756 10756 10756 10757 10757 10758 10758 10760 10762 10764 10765 10767 10766 10765 10762 10761 10761 10761 10762 10762 10759 10757 10755 10755 10756 10760 10760 10757 10755 10757 10757 10759 10765 10771 10772 10770 10770 10773 10774 10771 10768 10767 10767 10768 10767 10765 10760 10756 10755 10755 10754 10753 10752 10749 10745 10742 10739 10737 10735 10732 10730 10728 10724 10720 10717 10713 10709 10706 10701 10697 10693 10689 10684 10680 10674 10668 10661 10654 10647 10641
10744 10745 10745 10745 10746 10746 10746 10747 10747 10748 10749 10750 10751 10753 10755 10756 10757 10758 10758 10757 10755 10754 10754 10754 10753 10752 10750 10750 10750 10751 10753 10754 10750 10746 10745 10748 10752 10758 10765 10771 10771 10770 10769 10769 10766 10761 10760 10762 10761 10760 10759 10756 10751 10749 10750 10749 10747 10745 10742 10739 10736 10734 10732 10729 10726 10724 10721 10718 10714 10710 10706 10703 10699 10694 10690 10686 10682 10678 10673 10668 10662 10655 10649 10642 10636
10733 10734 10735 10735 10735 10736 10736 10737 10738 10738 10739 10741 10742 10744 10746 10748 10749 10750 10750 10749 10749 10749 10748 10747 10746 10744 10742 10742 10745 10747 10747 10747 10745 10741 10738 10740 10747 10754 10760 10765 10767 10763 10759 10759 10760 10757 10756 10756 10755 10753 10753 10750 10745 10743 10744 10743 10741 10739 10736 10732 10730 10728 10726 10723 10720 10718 10715 10711 10707 10704 10700 10696 10692 10688 10684 10680 10676 10671 10667 10662 10656 10650 10644 10637 10630
10722 10724 10724 10724 10725 10725 10726 10727 10728 10728 10730 10731 10733 10735 10737 10738 10740 10741 10741 10740 10741 10742 10743 10743 10740 10736 10733 10735 10740 10744 10744 10740 10736 10734 10734 10739 10747 10754 10758 10758 10758 10755 10750 10749 10751 10750 10749 10749 10749 10747 10745 10742 10739 10737 10737 10735 10734 10732 10729 10726 10724 10722 10720 10718 10715 10712 10708 10705 10701 10698 10694 10690 10686 10682 10678 10674 10670 10666 10661 10656 10650 10645 10638 10632 10625
10711 10713 10713 10714 10714 10715 10716 10717 10717 10718 10720 10722 10724 10726 10728 10730 10731 10732 10732 10732 10733 10734 10737 10737 10733 10727 10727 10731 10736 10740 10740 10736 10730 10728 10732 10738 10743 10748 10752 10752 10750 10747 10744 10742 10742 10743 10741 10740 10740 10739 10738 10736 10733 10731 10730 10729 10727 10725 10722 10719 10718 10716 10715 10712 10709 10705 10702 10698 10695 10691 10688 10684 10680 10676 10672 10668 10664 10660 10655 10650 10645 10639 10633 10627 10620
10700 10701 10702 10703 10704 10705 10706 10707 10708 10709 10711 10713 10715 10718 10720 10721 10723 10724 10724 10724 10724 10726 10729 10729 10724 10722 10724 10728 10732 10736 10736 10731 10726 10726 10732 10737 10737 10737 10741 10743 10741 10740 10739 10737 10735 10736 10734 10731 10731 10731 10730 10729 10727 10725 10723 10723 10721 10718 10715 10713 10712 10711 10709 10706 10702 10698 10695 10692 10689 10685 10682 10678 10674 10670 10666 10663 10658 10654 10649 10644 10639 10634 10628 10622 10616
10689 10690 10691 10693 10694 10695 10697 10698 10699 10701 10703 10704 10706 10709 10711 10712 10714 10715 10716 10716 10716 10718 10721 10719 10715 10718 10722 10722 10724 10730 10732 10730 10729 10730 10733 10733 10732 10731 10733 10736 10736 10735 10734 10729 10727 10727 10727 10725 10724 10724 10722 10720 10719 10718 10717 10716 10714 10711 10708 10707 10706 10705 10703 10699 10695 10692 10689 10686 10683 10679 10676 10672 10668 10664 10661 10657 10653 10648 10643 10638 10633 10628 10623 10617 10611
10679 10680 10681 10683 10684 10686 10688 10690 10691 10693 10695 10696 10698 10700 10702 10703 10705 10707 10708 10708 10709 10712 10714 10710 10707 10712 10716 10713 10713 10720 10726 10730 10734 10737 10737 10737 10733 10727 10725 10726 10725 10724 10723 10721 10718 10719 10719 10719 10718 10717 10714 10713 10712 10712 10710 10708 10706 10703 10702 10701 10700 10699 10696 10692 10688 10686 10683 10680 10676 10673 10669 10666 10662 10658 10654 10651 10647 10642 10637 10632 10627 10622 10617 10612 10606
10669 10670 10671 10673 10675 10677 10679 10682 10684 10686 10687 10688 10689 10690 10692 10693 10696 10698 10700 10701 10702 10704 10706 10703 10701 10705 10707 10702 10700 10706 10715 10721 10726 10729 10731 10731 10725 10716 10713 10714 10714 10713 10714 10713 10711 10711 10711 10711 10710 10709 10708 10707 10706 10704 10702 10700 10698 10696 10696 10695 10693 10691 10688 10685 10682 10679 10677 10674 10670 10666 10663 10660 10656 10652 10648 10644 10640 10636 10631 10626 10621 10616 10611 10606 10601
10661 10661 10663 10664 10666 10668 10671 10673 10675 10677 10678 10678 10679 10680 10682 10683 10686 10689 10692 10693 10694 10696 10697 10696 10696 10697 10695 10689 10686 10690 10699 10705 10710 10713 10715 10715 10710 10706 10707 10708 10707 10706 10706 10705 10702 10702 10703 10703 10702 10701 10701 10699 10698 10696 10694 10692 10690 10689 10688 10687 10686 10684 10681 10678 10675 10672 10670 10667 10663 10659 10656 10654 10650 10646 10642 10638 10634 10630 10625 10620 10615 10610 10606 10601 10596
10652 10653 10654 10655 10657 10659 10661 10664 10666 10667 10668 10669 10670 10671 10673 10674 10677 10681 10683 10685 10686 10689 10690 10689 10689 10689 10687 10681 10676 10678 10684 10690 10695 10699 10702 10703 10702 10701 10701 10700 10698 10697 10697 10695 10694 10694 10695 10695 10695 10694 10692 10691 10689 10687 10686 10684 10682 10681 10680 10679 10678 10677 10674 10671 10667 10665 10662 10659 10656 10652 10650 10647 10644 10640 10636 10632 10628 10623 10618 10613 10609 10604 10600 10596 10591
10642 10643 10644 10646 10648 10650 10652 10654 10656 10656 10657 10659 10661 10663 10664 10665 10667 10671 10675 10677 10678 10680 10682 10682 10681 10681 10681 10677 10672 10671 10673 10677 10681 10684 10686 10687 10688 10688 10687 10687 10687 10686 10686 10685 10685 10686 10687 10687 10686 10685 10683 10682 10680 10679 10677 10675 10674 10673 10672 10671 10670 10668 10666 10663 10659 10656 10654 10652 10649 10646 10643 10640 10637 10633 10630 10626 10622 10617 10612 10607 10602 10598 10595 10591 10586
10632 10634 10636 10637 10639 10641 10643 10645 10645 10646 10648 10649 10651 10652 10654 10654 10657 10661 10665 10668 10670 10671 10672 10673 10673 10673 10673 10672 10669 10666 10665 10665 10667 10669 10670 10672 10673 10673 10672 10672 10673 10673 10674 10676 10677 10678 10678 10678 10677 10676 10674 10673 10671 10670 10668 10666 10665 10664 10663 10662 10661 10660 10658 10654 10651 10648 10646 10644 10641 10638 10636 10633 10630 10627 10623 10619 10615 10610 10606 10601 10597 10592 10589 10585 10580
10624 10626 10628 10629 10631 10633 10634 10635 10636 10637 10638 10640 10641 10642 10642 10643 10647 10651 10655 10657 10659 10661 10662 10663 10664 10664 10664 10664 10664 10663 10662 10660 10659 10658 10659 10660 10661 10660 10659 10660 10662 10665 10667 10669 10669 10669 10669 10669 10668 10666 10665 10663 10662 10661 10659 10657 10655 10654 10653 10652 10652 10651 10649 10646 10643 10640 10637 10635 10633 10630 10628 10626 10623 10620 10616 10613 10608 10604 10599 10595 10590 10586 10582 10579 10574
10616 10618 10619 10621 10622 10623 10625 10625 10626 10628 10629 10631 10632 10632 10631 10634 10638 10641 10642 10645 10649 10651 10652 10653 10653 10653 10654 10655 10655 10656 10657 10657 10655 10654 10654 10654 10653 10652 10652 10653 10655 10658 10660 10660 10660 10659 10659 10659 10658 10657 10656 10654 10653 10651 10649 10647 10646 10644 10643 10642 10641 10640 10639 10637 10634 10632 10629 10627 10624 10622 10620 10618 10615 10612 10609 10605 10601 10597 10592 10588 10584 10580 10576 10572 10568
10608 10609 10611 10612 10613 10614 10615 10616 10617 10618 10620 10621 10622 10622 10622 10624 10627 10629 10630 10634 10638 10640 10641 10642 10641 10640 10642 10645 10646 10646 10648 10649 10649 10648 10648 10648 10647 10646 10646 10645 10646 10649 10651 10651 10650 10649 10649 10648 10648 10647 10647 10646 10644 10642 10640 10638 10636 10634 10633 10632 10631 10630 10628 10627 10626 10624 10621 10619 10616 10614 10612 10610 10607 10604 10601 10597 10594 10590 10585 10581 10577 10573 10570 10566 10562
10599 10601 10602 10603 10604 10605 10606 10607 10608 10608 10610 10611 10612 10612 10612 10614 10616 10617 10620 10624 10627 10629 10630 10632 10631 10630 10631 10634 10635 10636 10636 10638 10638 10639 10640 10640 10639 10639 10639 10638 10638 10639 10639 10639 10639 10639 10638 10638 10638 10638 10637 10636 10634 10632 10630 10628 10627 10625 10624 10622 10620 10619 10618 10618 10617 10616 10613 10611 10608 10606 10603 10601 10599 10596 10593 10590 10586 10582 10578 10574 10570 10567 10563 10559 10556
10590 10591 10592 10593 10594 10595 10597 10598 10598 10599 10600 10601 10602 10602 10603 10604 10605 10607 10610 10613 10616 10618 10620 10621 10621 10621 10622 10624 10624 10625 10625 10625 10626 10628 10629 10630 10629 10629 10628 10628 10628 10628 10628 10628 10628 10628 10628 10629 10629 10629 10628 10626 10624 10622 10621 10619 10618 10616 10614 10612 10610 10609 10608 10608 10608 10607 10605 10603 10600 10597 10595 10592 10590 10588 10585 10582 10579 10575 10571 10567 10563 10559 10556 10553 10549